Station CPXC1 - Cal Poly Pier, CA Image indicating link to RSS feed of recent meteorological observations for station CPXC1


Conditions at CPXC1 as of
(3:55 am PDT)
1055 GMT on 04/21/2024:
     

Click on the graph icon in the table below to see a time series plot of the last five days of that observation.

5-day plot - Wind Direction Wind Direction (WDIR): W ( 270 deg true )
5-day plot - Wind Speed Wind Speed (WSPD): 1.9 kts
5-day plot - Atmospheric Pressure Atmospheric Pressure (PRES):30.02 in
5-day plot - Air Temperature Air Temperature (ATMP): 61.9 °F
5-day plot - Salinity Salinity (SAL): 33.26 psu
5-day plot - Dew Point Dew Point (DEWP): 53.1 °F
5-day plot - Wind Speed at 10 Meters Wind Speed at 10 meters (WSPD10M): 1.9 kts
5-day plot - Wind Speed at 20 Meters Wind Speed at 20 meters (WSPD20M): 1.9 kts
5-day plot -  Wind Speed, Wind Gust and Atmospheric Pressure Combined plot of Wind Speed, Gust, and Air Pressure
Previous observations
TIME
(PDT)
5-day plot - Wind Direction
WDIR
 
5-day plot - Wind Speed
WSPD
kts
5-day plot - Wind Gust
GST
kts
5-day plot - Wave Height
WVHT
ft
5-day plot - Dominant Wave Period
DPD
sec
5-day plot - Average Wave Period
APD
sec
5-day plot - Mean Wave Direction
MWD
 
5-day plot - Atmospheric Pressure
PRES
in
5-day plot - Pressure Tendency
PTDY
in
5-day plot - Air Temperature
ATMP
°F
5-day plot - Water Temperature
WTMP
°F
5-day plot - Dew Point
DEWP
°F
5-day plot - Salinity
SAL
psu
5-day plot - Visibility
VIS
nmi
5-day plot - Tide (above MLLW)
TIDE
ft
2024-04-21 03:54 am W 2.9-----30.02- 62.2- 51.8---
2024-04-21 03:48 am SW 4.1-----30.02- 61.5- 53.4---
2024-04-21 03:42 am W 4.1-----30.02- 60.6- 51.6---
2024-04-21 03:36 am NW 1.9-----30.02- 61.9- 50.7---
2024-04-21 03:30 amNNW 2.9-----30.01- 61.9- 51.3 33.22--
2024-04-21 03:24 amWNW 1.9-----30.01- 61.0- 52.0 33.22--
2024-04-21 03:18 amNNW 2.9-----30.01- 60.8- 52.7---
2024-04-21 03:12 am W 1.0-----30.02- 60.1- 52.7---
2024-04-21 03:06 am W 1.9-----30.02- 59.4- 53.8---
2024-04-21 03:00 am NW 4.1-----30.02-0.02 60.3- 54.7---
2024-04-21 02:56 amSSW 5.1-----30.02- 58.3- 54.5 33.28--
2024-04-21 02:55 am SW 2.9-----30.02- 58.6- 54.7---
2024-04-21 02:54 amSSW 2.9-----30.02- 58.6- 54.5---
2024-04-21 02:48 am W 2.9-----30.02- 58.3- 53.8---
2024-04-21 02:42 amWSW 2.9-----30.02- 57.4- 53.6---
2024-04-21 02:36 amWNW 1.9-----30.03- 56.8- 53.1---
2024-04-21 02:30 am NW 4.1-----30.03- 57.4- 53.2---
2024-04-21 02:24 am W 1.9-----30.03- 56.8- 53.8 33.27--
2024-04-21 02:18 am W 1.9-----30.03- 56.1- 53.2---
2024-04-21 02:12 am W 1.9-----30.03- 56.1- 53.4---
2024-04-21 02:06 am NW 4.1-----30.03- 55.9- 53.6---
2024-04-21 02:00 amWNW 2.9-----30.03-0.01 55.6- 53.4 33.21--
2024-04-21 01:56 am NW 2.9-----30.03- 55.4- 53.2 33.24--
2024-04-21 01:55 amWNW 2.9-----30.04- 55.4- 53.2---
2024-04-21 01:54 amWNW 1.9-----30.03- 55.4- 53.1---
2024-04-21 01:48 amNNW 4.1-----30.04- 55.8- 53.4---
2024-04-21 01:42 am NW 2.9-----30.04- 55.6- 53.4---
2024-04-21 01:36 amNNW 1.9-----30.04- 55.8- 53.4---
2024-04-21 01:30 amNNW 2.9-----30.04- 55.6- 53.4 33.25--
2024-04-21 01:24 amNNW 1.9-----30.04- 55.6- 53.4---
2024-04-21 01:18 am- 0.0-----30.04- 55.9- 53.6---
2024-04-21 01:12 am N 1.9-----30.04- 55.8- 53.6---
2024-04-21 01:06 amNNW 1.0-----30.04- 55.6- 53.4---
2024-04-21 01:00 am N 1.9-----30.04+0.00 55.4- 53.1---
2024-04-21 12:56 am N 1.9-----30.04- 55.4- 53.1 33.30--
2024-04-21 12:55 am N 1.9-----30.05- 55.4- 53.1---
2024-04-21 12:54 amNNE 1.9-----30.05- 55.4- 53.2---
2024-04-21 12:48 am N 1.9-----30.05- 55.8- 53.4---
2024-04-21 12:42 amNNW 2.9-----30.05- 55.6- 53.2---
2024-04-21 12:36 amNNW 1.9-----30.05- 55.6- 53.1---
2024-04-21 12:30 am N 1.9-----30.05- 55.4- 52.9---
2024-04-21 12:24 am N 1.9-----30.05- 55.4- 52.9 33.31--
2024-04-21 12:18 amNNE 2.9-----30.05- 55.2- 52.7---
2024-04-21 12:12 amNNE 4.1-----30.05- 55.4- 52.7---
2024-04-21 12:06 amNNE 2.9-----30.05- 55.4- 52.7---
2024-04-21 12:00 am N 4.1-----30.04+0.02 55.6- 53.1 33.28--
2024-04-20 11:54 pm N 1.9-----30.05- 56.1- 53.6 33.32--
2024-04-20 11:48 pm N 2.9-----30.05- 55.9- 53.4---
2024-04-20 11:42 pm- 0.0-----30.05- 55.6- 53.2---
2024-04-20 11:36 pmNNE 4.1-----30.05- 55.8- 53.2---
2024-04-20 11:30 pm N 1.9-----30.05- 55.6- 53.1---
2024-04-20 11:24 pm N 2.9-----30.05- 55.6- 53.1 33.28--
2024-04-20 11:18 pm N 5.1-----30.05- 55.8- 53.1---
2024-04-20 11:12 pm NW 1.9-----30.05- 55.9- 53.2---
2024-04-20 11:06 pm N 5.1-----30.05- 56.1- 53.2---
2024-04-20 11:00 pm N 2.9-----30.05+0.04 56.1- 53.4---
2024-04-20 10:56 pm N 5.1-----30.05- 56.3- 53.4 33.29--
2024-04-20 10:55 pm N 4.1-----30.05- 56.3- 53.4---
2024-04-20 10:54 pm N 4.1-----30.05- 56.3- 53.4---
2024-04-20 10:48 pm N 5.1-----30.05- 56.3- 53.4---
2024-04-20 10:42 pm N 4.1-----30.05- 56.5- 53.6---
2024-04-20 10:36 pm N 5.1-----30.04- 56.5- 53.4---
2024-04-20 10:30 pm N 1.9-----30.04- 56.7- 53.6---
2024-04-20 10:24 pm N 4.1-----30.04- 56.7- 53.4 33.21--
2024-04-20 10:18 pmNNE 5.1-----30.04- 57.0- 53.6---
2024-04-20 10:12 pm N 4.1-----30.04- 57.2- 54.0---
2024-04-20 10:06 pm N 2.9-----30.04- 57.4- 54.1---
2024-04-20 10:00 pm N 4.1-----30.04+0.05 57.6- 54.3---
2024-04-20 09:56 pm N 4.1-----30.04- 57.7- 54.3 33.24--
2024-04-20 09:55 pm N 1.9-----30.04- 57.9- 54.3---
2024-04-20 09:54 pmNNE 5.1-----30.04- 57.7- 54.3---
2024-04-20 09:48 pmNNE 7.0-----30.04- 57.9- 54.1---
2024-04-20 09:42 pm N 2.9-----30.04- 58.1- 54.3---
2024-04-20 09:36 pmNNE 1.9-----30.03- 58.3- 54.5---
2024-04-20 09:30 pm N 2.9-----30.03- 58.6- 54.9---
2024-04-20 09:24 pmNNE 2.9-----30.03- 59.4- 55.2 33.29--
2024-04-20 09:18 pm N 1.9-----30.03- 59.2- 54.7---
2024-04-20 09:12 pm N 2.9-----30.03- 59.4- 55.0---
2024-04-20 09:06 pm N 4.1-----30.03- 59.5- 55.0---
2024-04-20 09:00 pm NW 4.1-----30.02+0.02 59.9- 55.6---
2024-04-20 08:56 pm N 1.9-----30.02- 60.1- 55.8 33.27--
2024-04-20 08:55 pmNNE 4.1-----30.02- 60.3- 55.9---
2024-04-20 08:54 pmNNE 4.1-----30.02- 60.3- 55.9---
2024-04-20 08:48 pmNNE 2.9-----30.02- 60.8- 56.1---
2024-04-20 08:42 pm N 4.1-----30.02- 61.2- 55.9---
2024-04-20 08:36 pm NE 2.9-----30.02- 61.3- 55.9---
2024-04-20 08:30 pm E 1.9-----30.01- 60.8- 56.1---
2024-04-20 08:24 pm E 2.9-----30.01- 61.0- 56.7 33.29--
2024-04-20 08:18 pmENE 4.1-----30.01- 61.0- 56.8---
2024-04-20 08:12 pm E 4.1-----30.01- 61.0- 56.8---
2024-04-20 08:06 pm E 2.9-----30.00- 61.9- 57.2---
2024-04-20 08:00 pm NE 1.9-----30.01- 61.3- 56.5---
2024-04-20 07:56 pmESE 2.9-----30.00- 61.3- 57.0 33.05--
2024-04-20 07:55 pm E 2.9-----30.00- 61.7- 57.4---
2024-04-20 07:54 pm E 2.9-----30.00- 61.7- 57.6---
2024-04-20 07:48 pm E 4.1-----30.00- 61.9- 57.4---
2024-04-20 07:42 pm E 1.9-----30.00- 62.4- 57.4---
2024-04-20 07:36 pmESE 1.9-----29.99- 62.8- 57.0---
2024-04-20 07:30 pm E 1.9-----30.00- 63.0- 57.2---
2024-04-20 07:24 pm E 2.9-----30.00- 63.1- 56.8 33.25--
2024-04-20 07:18 pm E 4.1-----30.00- 64.2- 57.0---
2024-04-20 07:12 pm E 1.9-----29.99- 64.8- 57.0---
2024-04-20 07:06 pm E 2.9-----29.99- 64.9- 57.2---
2024-04-20 07:00 pm E 1.0-----29.99-0.02 65.7- 57.6---
2024-04-20 06:56 pmESE 1.9-----29.99- 66.4- 57.4 33.12--
2024-04-20 06:55 pm E 1.9-----29.99- 66.4- 57.2---
2024-04-20 06:54 pm E 1.9-----30.00- 66.7- 57.6---
2024-04-20 06:48 pm- 0.0-----29.99- 67.3- 57.9---
2024-04-20 06:42 pm- 0.0-----29.99- 67.6- 58.1---
2024-04-20 06:36 pm NE 1.0-----30.00- 67.8- 58.8---
2024-04-20 06:30 pm- 0.0-----30.00- 67.6- 58.3 33.14--
2024-04-20 06:24 pm E 1.0-----30.00- 66.6- 57.9 33.16--
2024-04-20 06:18 pmESE 1.9-----30.00- 66.4- 57.7---
2024-04-20 06:12 pm E 1.9-----30.00- 67.3- 57.9---
2024-04-20 06:06 pm- 0.0-----30.00- 68.4- 58.8---
2024-04-20 06:00 pm- 0.0-----30.00-0.04 67.5- 59.0 33.15--
2024-04-20 05:56 pm NE 1.9-----30.00- 68.0- 58.8 33.21--
2024-04-20 05:55 pmENE 1.9-----30.00- 68.4- 58.6---
2024-04-20 05:54 pm- 0.0-----30.01- 68.9- 59.0---
2024-04-20 05:48 pm- 0.0-----30.00- 68.2- 59.4---
2024-04-20 05:42 pm- 0.0-----30.00- 66.9- 59.2---
2024-04-20 05:36 pm SE 1.9-----30.00- 66.7- 58.5---
2024-04-20 05:30 pmESE 1.9-----30.00- 67.3- 58.8 33.14--
2024-04-20 05:24 pm SE 1.9-----30.00- 68.2- 58.3 33.15--
2024-04-20 05:18 pm- 0.0-----30.01- 68.7- 58.6---
2024-04-20 05:12 pm- 0.0-----30.00- 68.0- 59.0---
2024-04-20 04:55 pm- 0.0-----30.00- 67.6- 58.3 33.18--
2024-04-20 04:54 pm E 1.0-----30.00- 67.8- 58.1---
2024-04-20 04:48 pm- 0.0-----30.00- 67.3- 57.9---
2024-04-20 04:42 pm- 0.0-----30.00- 65.7- 57.2---
2024-04-20 04:36 pm S 1.9-----30.01- 65.7- 57.6---
2024-04-20 04:30 pm S 4.1-----30.00- 65.8- 57.9 33.15--
2024-04-20 04:24 pm- 0.0-----30.01- 65.8- 57.9 33.17--
2024-04-20 04:18 pmSSE 1.9-----30.01- 65.3- 57.7---
2024-04-20 04:12 pmSSW 1.0-----30.01- 65.8- 57.6---
2024-04-20 04:06 pm- 0.0-----30.01- 64.8- 57.7---
2024-04-20 04:00 pm E 1.9-----30.02-0.06 63.7- 57.2 33.14--
2024-04-20 03:56 pmESE 1.9-----30.02- 63.7- 57.2 33.17--
2024-04-20 03:55 pmESE 1.0-----30.02- 63.7- 57.4---
2024-04-20 03:54 pm E 1.0-----30.02- 63.5- 57.2---
2024-04-20 03:48 pmNNW 1.0-----30.03- 63.5- 57.7---
2024-04-20 03:42 pmESE 1.0-----30.02- 61.5- 56.8---
2024-04-20 03:36 pm E 2.9-----30.03- 60.8- 56.5---
2024-04-20 03:30 pmESE 4.1-----30.03- 60.1- 56.1 33.11--
2024-04-20 03:24 pm E 2.9-----30.03- 60.1- 56.1 33.21--
2024-04-20 03:18 pm E 4.1-----30.03- 59.7- 55.9---
2024-04-20 03:12 pmESE 6.0-----30.04- 59.5- 55.6---
2024-04-20 03:06 pmESE 7.0-----30.04- 59.7- 55.8---
2024-04-20 03:00 pmESE 6.0-----30.04-0.05 59.5- 55.2 33.15--
2024-04-20 02:56 pmESE 6.0-----30.04- 59.5- 55.0 33.15--
2024-04-20 02:55 pmESE 6.0-----30.04- 59.5- 55.0---
2024-04-20 02:54 pmESE 6.0-----30.04- 59.5- 55.2---
2024-04-20 02:48 pmESE 5.1-----30.04- 59.5- 55.0---
2024-04-20 02:42 pmESE 5.1-----30.05- 59.9- 55.2---
2024-04-20 02:36 pm E 6.0-----30.05- 60.6- 55.4---
2024-04-20 02:30 pm E 6.0-----30.05- 61.0- 55.2 33.09--
2024-04-20 02:24 pmESE 5.1-----30.05- 61.9- 56.1 33.12--
2024-04-20 02:18 pmENE 5.1-----30.06- 62.1- 56.1---
2024-04-20 02:12 pm E 4.1-----30.05- 62.8- 55.9---
2024-04-20 02:06 pmESE 1.9-----30.06- 62.4- 56.1---
2024-04-20 02:00 pm E 1.9-----30.05-0.04 62.1- 55.9 33.12--
2024-04-20 01:56 pmSSE 2.9-----30.06- 61.9- 55.9 33.23--
2024-04-20 01:55 pm S 1.9-----30.06- 61.7- 55.8---
2024-04-20 01:54 pmSSW 6.0-----30.06- 61.7- 55.8---
2024-04-20 01:48 pm- 0.0-----30.06- 61.9- 56.3---
2024-04-20 01:42 pmSSW 2.9-----30.06- 60.3- 55.2---
2024-04-20 01:36 pm SW 4.1-----30.06- 59.7- 55.2---
2024-04-20 01:30 pm SW 6.0-----30.06- 59.4- 55.2 33.12--
2024-04-20 01:24 pm SW 7.0-----30.06- 59.2- 55.0 33.20--
2024-04-20 01:18 pmSSW 7.0-----30.06- 59.5- 55.4---
2024-04-20 01:12 pmSSW 6.0-----30.07- 59.2- 55.2---
2024-04-20 01:06 pmSSW 8.0-----30.07- 58.8- 55.0---
2024-04-20 01:00 pmSSW 8.0-----30.08-0.01 58.3- 54.3 33.15--
2024-04-20 12:56 pmSSW 8.0-----30.08- 58.1- 54.3 33.24--
2024-04-20 12:55 pmSSW 6.0-----30.08- 58.3- 54.5---
2024-04-20 12:54 pm S 7.0-----30.08- 58.1- 54.3---
2024-04-20 12:48 pm S 4.1-----30.08- 57.7- 54.1---
2024-04-20 12:42 pmSSW 7.0-----30.08- 57.4- 54.0---
2024-04-20 12:36 pmSSW 7.0-----30.08- 57.2- 53.8---
2024-04-20 12:30 pm SW 4.1-----30.08- 57.7- 54.0 33.17--
2024-04-20 12:24 pmSSW 4.1-----30.09- 58.1- 54.3---
2024-04-20 12:18 pmSSW 2.9-----30.09- 57.9- 54.3---
2024-04-20 12:12 pmSSW 1.9-----30.09- 57.2- 54.0---
2024-04-20 12:06 pm SW 6.0-----30.09- 56.7- 53.4---
2024-04-20 12:00 pm SW 6.0-----30.09+0.00 56.7- 53.4 33.21--
2024-04-20 11:56 amSSW 6.0-----30.09- 56.7- 53.4 33.16--
2024-04-20 11:55 amSSW 5.1-----30.09- 56.7- 53.4---
2024-04-20 11:54 am SW 6.0-----30.09- 56.5- 53.4---
2024-04-20 11:48 am SW 6.0-----30.09- 56.7- 53.4---
2024-04-20 11:42 am S 1.9-----30.09- 56.8- 53.8---
2024-04-20 11:36 amSSW 5.1-----30.09- 56.1- 53.4---
2024-04-20 11:30 amSSW 6.0-----30.09- 55.4- 52.7---
2024-04-20 11:24 amSSW 5.1-----30.09- 55.4- 52.7 33.16--
2024-04-20 11:18 am SW 5.1-----30.09- 55.4- 52.7---
2024-04-20 11:12 amSSW 4.1-----30.09- 55.4- 52.7---
2024-04-20 11:06 amSSW 5.1-----30.09- 55.0- 52.3---
2024-04-20 11:00 amSSW 1.9-----30.09+0.01 55.6- 52.7 33.19--
2024-04-20 10:56 am SW 2.9-----30.09- 55.8- 52.9 33.25--
2024-04-20 10:55 am S 2.9-----30.09- 55.6- 52.7---
2024-04-20 10:54 am S 2.9-----30.09- 55.6- 52.9---
2024-04-20 10:48 am S 2.9-----30.09- 55.2- 52.7---
2024-04-20 10:42 amWSW 1.0-----30.09- 54.5- 52.3---
2024-04-20 10:36 am S 4.1-----30.09- 54.0- 52.0---
2024-04-20 10:30 amSSW 1.9-----30.09- 53.8- 52.0---
2024-04-20 10:24 amSSW 6.0-----30.09- 53.2- 51.4 33.16--
2024-04-20 10:18 am S 5.1-----30.09- 53.4- 51.6---
2024-04-20 10:12 amSSW 5.1-----30.09- 53.2- 51.4---
2024-04-20 10:06 amSSW 4.1-----30.09- 53.2- 51.4---
2024-04-20 10:00 am SW 5.1-----30.09+0.03 53.2- 51.3---
2024-04-20 09:56 am S 4.1-----30.09- 53.4- 51.4 33.17--
2024-04-20 09:55 amSSW 4.1-----30.09- 53.4- 51.4---
2024-04-20 09:54 am S 4.1-----30.09- 53.4- 51.4---
2024-04-20 09:48 am SW 5.1-----30.09- 53.4- 51.3---
2024-04-20 09:42 am S 2.9-----30.09- 53.6- 51.4---
2024-04-20 09:36 amSSE 4.1-----30.09- 53.8- 51.4---
2024-04-20 09:30 am E 1.9-----30.09- 53.8- 51.4---
2024-04-20 09:24 am- 0.0-----30.09- 54.1- 52.0 33.19--
2024-04-20 09:18 amWSW 1.9-----30.09- 53.6- 51.4---
2024-04-20 09:12 am SW 1.0-----30.09- 53.4- 51.4---
2024-04-20 09:06 amWNW 1.0-----30.09- 53.2- 51.4---
2024-04-20 09:00 amWSW 1.9-----30.09+0.06 53.1- 51.3---
2024-04-20 08:56 am W 1.0-----30.09- 52.9- 51.1 33.20--
2024-04-20 08:55 am W 2.9-----30.09- 52.9- 51.3---
2024-04-20 08:54 am W 2.9-----30.09- 52.9- 51.1---
2024-04-20 08:48 am NW 1.9-----30.09- 52.9- 51.1---
2024-04-20 08:42 am NW 1.9-----30.09- 52.9- 51.1---
2024-04-20 08:36 am N 1.9-----30.09- 52.9- 51.1---
2024-04-20 08:30 am N 1.9-----30.08- 53.1- 51.3---
2024-04-20 08:24 am N 1.9-----30.08- 52.9- 51.1 33.17--
2024-04-20 08:18 amNNE 4.1-----30.08- 52.7- 50.9---
2024-04-20 08:12 amENE 2.9-----30.08- 52.9- 51.1---
2024-04-20 08:06 amENE 1.9-----30.08- 52.9- 51.1---
2024-04-20 08:00 amNNE 1.9-----30.08+0.05 53.1- 51.3---
2024-04-20 07:56 am- 0.0-----30.08- 52.9- 51.1 33.13--
2024-04-20 07:55 am N 1.9-----30.08- 52.9- 51.1---
2024-04-20 07:54 amNNW 1.9-----30.08- 52.9- 51.1---
2024-04-20 07:48 am N 1.9-----30.08- 52.7- 51.1---
2024-04-20 07:42 am N 1.9-----30.07- 52.7- 51.1---
2024-04-20 07:36 am NE 1.9-----30.07- 52.7- 50.9---
2024-04-20 07:30 am NE 1.9-----30.07- 52.5- 50.9 33.12--
2024-04-20 07:24 am N 2.9-----30.06- 52.3- 50.7 33.15--
2024-04-20 07:18 am NW 1.9-----30.06- 52.3- 50.7---
2024-04-20 07:12 am NW 1.9-----30.06- 52.3- 50.7---
2024-04-20 07:06 amNNW 4.1-----30.06- 52.3- 50.7---
2024-04-20 07:00 amNNW 5.1-----30.06+0.03 52.5- 50.9---
2024-04-20 06:56 am NW 2.9-----30.06- 52.3- 50.7 33.06--
2024-04-20 06:55 am NW 5.1-----30.06- 52.3- 50.7---
2024-04-20 06:54 am NW 5.1-----30.06- 52.3- 50.7---
2024-04-20 06:48 am NW 4.1-----30.06- 52.5- 50.9---
2024-04-20 06:42 amNNW 4.1-----30.05- 52.5- 50.9---
2024-04-20 06:36 am W 4.1-----30.05- 52.5- 50.7---
2024-04-20 06:30 amNNW 4.1-----30.05- 52.5- 50.9---
2024-04-20 06:24 amWNW 5.1-----30.04- 52.5- 50.7 33.27--
2024-04-20 06:18 amWNW 4.1-----30.04- 52.7- 51.1---
2024-04-20 06:12 am W 2.9-----30.04- 52.7- 50.9---
2024-04-20 06:06 am W 4.1-----30.04- 53.1- 51.1---
2024-04-20 06:00 am- 0.0-----30.03+0.00 53.1- 51.1---
2024-04-20 05:56 am- 0.0-----30.03- 53.1- 51.1 33.22--
2024-04-20 05:55 am- 0.0-----30.03- 53.1- 51.1---
2024-04-20 05:54 am E 1.9-----30.03- 52.9- 50.9---
2024-04-20 05:48 amENE 1.9-----30.03- 53.1- 51.1---
2024-04-20 05:42 am- 0.0-----30.03- 53.1- 51.1---
2024-04-20 05:36 am N 1.0-----30.02- 53.1- 51.1---
2024-04-20 05:30 amNNE 1.9-----30.02- 52.9- 50.9 33.25--
2024-04-20 05:24 am NE 4.1-----30.02- 52.9- 50.9 33.13--
2024-04-20 05:18 am NE 2.9-----30.02- 53.2- 51.1---
2024-04-20 05:12 am- 0.0-----30.02- 53.6- 51.3---
2024-04-20 05:06 am- 0.0-----30.03- 53.4- 51.1---
2024-04-20 05:00 amWNW 1.0-----30.03+0.00 53.2- 51.1 33.26--
2024-04-20 04:56 am NW 1.9-----30.03- 53.2- 50.9 33.27--
2024-04-20 04:55 am NW 1.0-----30.03- 53.2- 50.9---
2024-04-20 04:54 amNNW 2.9-----30.03- 53.2- 50.9---

Ocean Conditions at CPXC1 as of
(3:42 am PDT)
1042 GMT on 04/21/2024:

These oceanographic data are displayed in rounded times.

     

Click on the graph icon in the table below to see a time series plot of the last five days of that observation.

Depth (DEPTH): 6.6 ft
5-day plot - Ocean Temperature Ocean Temperature (OTMP):56.30 °F
5-day plot - Salinity Salinity (SAL):33.26 psu
5-day plot - Chlorophyll Chlorophyll (CLCON): 1.25 ug/l
5-day plot - Turbidity Turbidity (TURB): 1 FTU
Previous observations
TIME
(PDT)
DEPTH
ft
5-day plot - Ocean Temperature
OTMP
°F
5-day plot - Conductivity
COND
mS/cm
5-day plot - Salinity
SAL
psu
5-day plot - Oxygen Concentration
O2%
%
5-day plot - Oxygen Concentration
O2PPM
ppm
5-day plot - Chlorophyll
CLCON
ug/l
5-day plot - Turbidity
TURB
FTU
5-day plot - pH
PH
 
5-day plot - Eh
EH
mv
2024-04-21 03:41 am 16.455.65-33.36-- 1.49 1--
2024-04-21 03:40 am 26.254.82-33.43-- 2.00 1--
2024-04-21 03:39 am 32.854.12-33.47-- 2.05 1--
2024-04-21 03:34 am 13.155.90-33.32-- 1.47 1--
2024-04-21 03:33 am 6.656.43-33.22-- 1.32 1--
2024-04-21 03:12 am 6.656.37-33.22-- 1.12 1--
2024-04-21 03:11 am 16.455.56-33.38-- 1.50 1--
2024-04-21 03:10 am 26.254.90-33.41-- 2.16 1--
2024-04-21 03:09 am 32.854.07-33.48-- 1.94 1--
2024-04-21 03:08 am 36.153.98-33.48-- 1.26 2--
2024-04-21 03:05 am 19.755.45-33.38-- 1.91 1--
2024-04-21 03:04 am 13.155.72-33.34-- 1.50 1--
2024-04-21 03:03 am 9.856.35-33.22-- 1.09 1--
2024-04-21 02:42 am 6.655.89-33.28-- 1.37 1--
2024-04-21 02:41 am 13.155.24-33.39-- 2.04 1--
2024-04-21 02:40 am 23.054.63-33.44-- 2.65 1--
2024-04-21 02:39 am 29.554.14-33.47-- 2.04 1--
2024-04-21 02:38 am 32.853.94-33.48-- 1.19 2--
2024-04-21 02:34 am 13.155.47-33.37-- 1.77 1--
2024-04-21 02:33 am 9.855.76-33.32-- 1.25 1--
2024-04-21 02:12 am 6.656.10-33.27-- 1.34 1--
2024-04-21 02:11 am 16.455.13-33.41-- 2.13 1--
2024-04-21 02:10 am 26.254.41-33.46-- 2.45 1--
2024-04-21 02:09 am 32.853.96-33.48-- 1.40 2--
2024-04-21 02:08 am 36.153.94-33.48-- 1.24 2--
2024-04-21 02:05 am 19.754.95-33.42-- 2.30 1--
2024-04-21 02:04 am 13.155.53-33.37-- 1.59 1--
2024-04-21 02:03 am 6.656.26-33.21-- 1.26 1--
2024-04-21 01:43 am 3.356.14-33.24-- 1.30 1--
2024-04-21 01:42 am 9.855.63-33.35-- 1.35 1--
2024-04-21 01:41 am 16.455.17-33.40-- 2.24 1--
2024-04-21 01:40 am 26.254.27-33.47-- 2.57 1--
2024-04-21 01:39 am 32.853.98-33.48-- 1.47 2--
2024-04-21 01:38 am 36.153.96-33.48-- 1.41 2--
2024-04-21 01:34 am 13.155.62-33.37-- 1.64 1--
2024-04-21 01:33 am 6.656.08-33.25-- 1.29 1--
2024-04-21 01:12 am 9.855.67-33.37-- 1.55 1--
2024-04-21 01:11 am 16.455.11-33.41-- 2.50 1--
2024-04-21 01:10 am 26.254.36-33.46-- 2.71 1--
2024-04-21 01:09 am 32.854.03-33.48-- 1.51 3--
2024-04-21 01:08 am 36.154.01-33.48-- 1.51 3--
2024-04-21 01:05 am 19.755.31-33.39-- 2.54 1--
2024-04-21 01:04 am 16.455.54-33.39-- 2.26 1--
2024-04-21 01:03 am 9.856.14-33.29-- 1.35 1--
2024-04-21 12:43 am 3.356.08-33.30-- 1.24 1--
2024-04-21 12:42 am 9.855.67-33.37-- 1.62 1--
2024-04-21 12:41 am 16.455.29-33.40-- 2.16 1--
2024-04-21 12:40 am 26.254.34-33.46-- 2.68 1--
2024-04-21 12:39 am 32.854.07-33.47-- 1.63 2--
2024-04-21 12:38 am 36.154.05-33.48-- 1.46 3--
2024-04-21 12:34 am 13.155.62-33.38-- 2.31 1--
2024-04-21 12:33 am 9.855.94-33.30-- 1.30 1--
2024-04-21 12:13 am 6.655.94-33.31-- 1.57 1--
2024-04-21 12:12 am 9.855.69-33.35-- 1.69 1--
2024-04-21 12:11 am 19.754.82-33.43-- 2.06 1--
2024-04-21 12:10 am 29.554.16-33.47-- 2.86 1--
2024-04-21 12:09 am 36.154.03-33.48-- 1.64 2--
2024-04-21 12:05 am 19.755.11-33.40-- 2.30 1--
2024-04-21 12:04 am 13.155.62-33.37-- 1.75 1--
2024-04-21 12:03 am 6.656.10-33.28-- 1.31 1--
2024-04-20 11:43 pm 6.655.89-33.32-- 1.56 1--
2024-04-20 11:42 pm 13.155.53-33.38-- 2.09 1--
2024-04-20 11:41 pm 19.754.95-33.42-- 2.34 1--
2024-04-20 11:40 pm 29.554.27-33.46-- 2.87 1--
2024-04-20 11:39 pm 36.154.09-33.47-- 2.18 2--
2024-04-20 11:34 pm 13.155.53-33.38-- 2.27 1--
2024-04-20 11:33 pm 9.855.72-33.35-- 1.39 1--
2024-04-20 11:13 pm 6.656.07-33.28-- 1.44 1--
2024-04-20 11:12 pm 13.155.31-33.39-- 2.33 1--
2024-04-20 11:11 pm 19.754.70-33.44-- 2.80 1--
2024-04-20 11:10 pm 29.554.14-33.47-- 3.05 1--
2024-04-20 11:09 pm 36.154.09-33.47-- 2.15 2--
2024-04-20 11:05 pm 19.754.91-33.41-- 2.31 1--
2024-04-20 11:04 pm 13.155.56-33.37-- 2.07 1--
2024-04-20 11:03 pm 9.856.01-33.31-- 1.27 1--
2024-04-20 10:43 pm 6.656.21-33.29-- 1.44 1--
2024-04-20 10:42 pm 13.155.29-33.39-- 2.09 1--
2024-04-20 10:41 pm 19.754.72-33.44-- 2.58 1--
2024-04-20 10:40 pm 29.554.28-33.46-- 3.15 1--
2024-04-20 10:39 pm 36.154.18-33.47-- 2.69 1--
2024-04-20 10:34 pm 13.155.67-33.36-- 1.92 1--
2024-04-20 10:33 pm 9.856.08-33.28-- 1.12 1--
2024-04-20 10:13 pm 6.656.43-33.21-- 1.34 1--
2024-04-20 10:12 pm 13.155.47-33.38-- 1.98 1--
2024-04-20 10:11 pm 19.754.84-33.43-- 2.52 1--
2024-04-20 10:10 pm 32.854.32-33.46-- 3.05 1--
2024-04-20 10:09 pm 39.454.21-33.47-- 2.56 2--
2024-04-20 10:05 pm 19.755.04-33.41-- 2.04 1--
2024-04-20 10:04 pm 13.155.45-33.38-- 2.03 1--
2024-04-20 10:03 pm 9.856.10-33.30-- 1.17 1--
2024-04-20 09:43 pm 6.656.44-33.24-- 1.31 1--
2024-04-20 09:42 pm 13.155.47-33.38-- 1.73 1--
2024-04-20 09:41 pm 19.754.95-33.42-- 2.14 1--
2024-04-20 09:40 pm 29.554.43-33.46-- 3.06 1--
2024-04-20 09:39 pm 39.454.25-33.47-- 2.95 1--
2024-04-20 09:34 pm 13.155.56-33.36-- 1.81 1--
2024-04-20 09:33 pm 9.856.30-33.27-- 1.39 1--
2024-04-20 09:13 pm 6.656.23-33.29-- 1.39 1--
2024-04-20 09:12 pm 13.155.36-33.39-- 1.75 1--
2024-04-20 09:11 pm 23.054.72-33.44-- 2.91 1--
2024-04-20 09:10 pm 32.854.39-33.46-- 2.82 1--
2024-04-20 09:09 pm 39.454.28-33.47-- 2.52 2--
2024-04-20 09:05 pm 19.755.02-33.41-- 2.25 1--
2024-04-20 09:04 pm 13.155.58-33.36-- 1.83 1--
2024-04-20 09:03 pm 9.856.14-33.30-- 1.27 1--
2024-04-20 08:43 pm 6.656.41-33.27-- 1.43 1--
2024-04-20 08:42 pm 13.155.40-33.39-- 1.82 1--
2024-04-20 08:41 pm 19.754.99-33.42-- 2.15 1--
2024-04-20 08:40 pm 29.554.50-33.45-- 3.02 1--
2024-04-20 08:39 pm 36.154.34-33.46-- 2.67 1--
2024-04-20 08:38 pm 39.454.32-33.46-- 2.05 3--
2024-04-20 08:34 pm 16.455.36-33.39-- 1.80 1--
2024-04-20 08:33 pm 9.856.35-33.27-- 1.55 1--
2024-04-20 08:13 pm 6.656.25-33.29-- 1.33 1--
2024-04-20 08:12 pm 13.155.40-33.38-- 1.80 1--
2024-04-20 08:11 pm 19.755.11-33.41-- 2.31 1--
2024-04-20 08:10 pm 32.854.46-33.46-- 2.50 1--
2024-04-20 08:09 pm 39.454.30-33.47-- 2.22 3--
2024-04-20 08:05 pm 19.755.17-33.40-- 1.90 1--
2024-04-20 08:04 pm 13.155.40-33.38-- 1.73 1--
2024-04-20 08:03 pm 9.856.41-33.24-- 1.25 1--
2024-04-20 07:43 pm 3.358.64-33.05-- 1.40 1--
2024-04-20 07:42 pm 9.855.87-33.34-- 1.60 1--
2024-04-20 07:41 pm 16.455.15-33.41-- 1.81 1--
2024-04-20 07:40 pm 29.554.50-33.45-- 2.00 1--
2024-04-20 07:39 pm 36.154.45-33.46-- 2.34 2--
2024-04-20 07:34 pm 16.455.29-33.40-- 1.68 1--
2024-04-20 07:33 pm 9.856.62-33.23-- 1.42 1--
2024-04-20 07:13 pm 3.357.88-33.25-- 1.66 1--
2024-04-20 07:12 pm 9.855.69-33.35-- 1.58 1--
2024-04-20 07:11 pm 16.455.18-33.41-- 1.91 1--
2024-04-20 07:10 pm 29.554.52-33.45-- 1.86 1--
2024-04-20 07:09 pm 36.154.46-33.46-- 2.16 2--
2024-04-20 07:05 pm 19.755.09-33.41-- 2.00 1--
2024-04-20 07:04 pm 16.455.31-33.41-- 1.55 1--
2024-04-20 07:03 pm 9.856.73-33.19-- 1.51 1--
2024-04-20 06:43 pm 3.357.74-33.12-- 1.57 1--
2024-04-20 06:42 pm 9.855.99-33.33-- 1.63 1--
2024-04-20 06:41 pm 16.455.35-33.40-- 1.52 1--
2024-04-20 06:40 pm 29.554.50-33.45-- 2.69 1--
2024-04-20 06:39 pm 36.154.41-33.46-- 2.22 2--
2024-04-20 06:34 pm 13.155.89-33.34-- 1.64 1--
2024-04-20 06:33 pm 6.657.72-33.14-- 1.66 1--
2024-04-20 06:12 pm 6.657.72-33.16-- 1.55 1--
2024-04-20 06:11 pm 16.455.06-33.43-- 1.54 1--
2024-04-20 06:10 pm 26.254.54-33.45-- 3.14 1--
2024-04-20 06:09 pm 32.854.46-33.46-- 2.13 2--
2024-04-20 06:08 pm 36.154.37-33.46-- 1.56 3--
2024-04-20 06:05 pm 19.754.82-33.43-- 2.02 1--
2024-04-20 06:04 pm 13.155.58-33.38-- 1.63 1--
2024-04-20 06:03 pm 6.657.83-33.15-- 1.70 1--
2024-04-20 05:42 pm 6.657.36-33.21-- 1.60 1--
2024-04-20 05:41 pm 13.155.18-33.41-- 1.48 1--
2024-04-20 05:40 pm 26.254.54-33.45-- 2.87 1--
2024-04-20 05:39 pm 32.854.50-33.45-- 2.58 1--
2024-04-20 05:38 pm 36.154.39-33.46-- 1.55 2--
2024-04-20 05:34 pm 13.155.44-33.39-- 1.60 1--
2024-04-20 05:33 pm 6.657.88-33.14-- 1.98 1--
2024-04-20 05:12 pm 3.358.08-33.15-- 1.69 1--
2024-04-20 05:11 pm 13.155.40-33.40-- 1.46 1--
2024-04-20 05:10 pm 23.054.66-33.44-- 2.60 1--
2024-04-20 05:09 pm 32.854.41-33.46-- 2.93 1--
2024-04-20 05:08 pm 36.154.37-33.46-- 1.45 3--
2024-04-20 05:05 pm 19.754.81-33.43-- 2.71 1--
2024-04-20 05:04 pm 16.455.36-33.41-- 1.56 1--
2024-04-20 05:03 pm 9.857.29-33.16-- 1.93 1--
2024-04-20 04:42 pm 6.657.42-33.18-- 1.37 1--
2024-04-20 04:41 pm 13.155.40-33.40-- 1.54 1--
2024-04-20 04:40 pm 26.254.55-33.45-- 2.26 1--
2024-04-20 04:39 pm 32.854.46-33.45-- 2.10 2--
2024-04-20 04:38 pm 36.154.39-33.46-- 1.73 3--
2024-04-20 04:34 pm 13.156.01-33.34-- 1.47 1--
2024-04-20 04:33 pm 6.657.90-33.15-- 1.69 1--
2024-04-20 04:12 pm 3.357.81-33.17-- 1.60 1--
2024-04-20 04:11 pm 13.155.67-33.38-- 1.38 1--
2024-04-20 04:10 pm 23.054.66-33.44-- 1.96 1--
2024-04-20 04:09 pm 29.554.57-33.45-- 2.26 1--
2024-04-20 04:08 pm 36.154.41-33.46-- 1.75 3--
2024-04-20 04:05 pm 19.754.97-33.43-- 1.65 1--
2024-04-20 04:04 pm 13.156.16-33.32-- 1.38 1--
2024-04-20 04:03 pm 6.658.05-33.14-- 1.61 1--
2024-04-20 03:42 pm 6.657.70-33.17-- 1.57 1--
2024-04-20 03:41 pm 13.155.78-33.37-- 1.50 1--
2024-04-20 03:40 pm 23.054.68-33.44-- 2.12 1--
2024-04-20 03:39 pm 29.554.46-33.45-- 1.96 1--
2024-04-20 03:38 pm 36.154.37-33.46-- 1.74 2--
2024-04-20 03:34 pm 13.156.23-33.32-- 1.37 1--
2024-04-20 03:33 pm 6.658.28-33.11-- 1.60 1--
2024-04-20 03:12 pm 6.657.24-33.21-- 1.46 1--
2024-04-20 03:11 pm 13.156.03-33.34-- 1.50 1--
2024-04-20 03:10 pm 23.054.73-33.44-- 1.77 1--
2024-04-20 03:09 pm 29.554.45-33.46-- 1.72 1--
2024-04-20 03:08 pm 32.854.36-33.46-- 1.55 3--
2024-04-20 03:05 pm 19.755.47-33.40-- 1.37 1--
2024-04-20 03:04 pm 13.156.39-33.29-- 1.30 1--
2024-04-20 03:03 pm 6.657.88-33.15-- 1.52 1--
2024-04-20 02:42 pm 6.657.83-33.15-- 1.48 1--
2024-04-20 02:41 pm 13.156.26-33.31-- 1.41 1--
2024-04-20 02:40 pm 23.054.82-33.44-- 1.48 1--
2024-04-20 02:39 pm 29.554.48-33.45-- 1.90 1--
2024-04-20 02:38 pm 36.154.32-33.46-- 1.48 2--
2024-04-20 02:34 pm 13.156.35-33.29-- 1.42 1--
2024-04-20 02:33 pm 6.658.28-33.09-- 1.48 1--
2024-04-20 02:12 pm 3.358.41-33.12-- 1.50 1--
2024-04-20 02:11 pm 13.156.53-33.27-- 1.46 1--
2024-04-20 02:10 pm 23.054.99-33.43-- 1.41 1--
2024-04-20 02:09 pm 29.554.50-33.45-- 2.19 1--
2024-04-20 02:08 pm 32.854.30-33.46-- 1.42 3--
2024-04-20 02:05 pm 19.755.47-33.39-- 1.38 1--
2024-04-20 02:04 pm 13.156.32-33.30-- 1.32 1--
2024-04-20 02:03 pm 6.658.06-33.12-- 1.37 1--
2024-04-20 01:42 pm 6.657.00-33.23-- 1.34 1--
2024-04-20 01:41 pm 13.156.17-33.31-- 1.37 1--
2024-04-20 01:40 pm 23.054.82-33.44-- 1.60 1--
2024-04-20 01:39 pm 32.854.36-33.46-- 2.09 1--
2024-04-20 01:38 pm 36.154.28-33.46-- 1.20 3--
2024-04-20 01:34 pm 13.156.30-33.30-- 1.30 1--
2024-04-20 01:33 pm 6.657.90-33.12-- 1.47 1--
2024-04-20 01:12 pm 6.657.20-33.20-- 1.22 1--
2024-04-20 01:11 pm 13.155.87-33.34-- 1.32 1--
2024-04-20 01:10 pm 23.054.81-33.44-- 1.44 1--
2024-04-20 01:09 pm 32.854.41-33.45-- 2.32 1--
2024-04-20 01:08 pm 36.154.27-33.47-- 1.16 3--
2024-04-20 01:05 pm 19.755.13-33.41-- 1.36 1--
2024-04-20 01:04 pm 13.156.16-33.31-- 1.28 1--
2024-04-20 01:03 pm 6.657.63-33.15-- 1.10 1--
2024-04-20 12:42 pm 6.656.80-33.24-- 1.00 1--
2024-04-20 12:41 pm 16.455.17-33.41-- 1.30 1--
2024-04-20 12:40 pm 26.254.61-33.44-- 2.51 1--
2024-04-20 12:39 pm 32.854.39-33.46-- 1.88 1--
2024-04-20 12:38 pm 36.154.27-33.47-- 1.08 3--
2024-04-20 12:34 pm 13.155.99-33.32-- 1.07 1--
2024-04-20 12:33 pm 6.657.40-33.17-- 1.00 1--
2024-04-20 12:12 pm 9.856.05-33.31-- 0.95 1--
2024-04-20 12:11 pm 16.455.33-33.40-- 1.18 1--
2024-04-20 12:10 pm 26.254.63-33.44-- 2.17 1--
2024-04-20 12:09 pm 36.154.30-33.46-- 1.92 1--
2024-04-20 12:05 pm 19.755.04-33.42-- 1.41 1--
2024-04-20 12:04 pm 13.155.87-33.34-- 1.08 1--
2024-04-20 12:03 pm 6.656.82-33.21-- 1.02 1--
2024-04-20 11:43 am 3.357.24-33.16-- 1.04 1--
2024-04-20 11:42 am 9.855.74-33.35-- 0.90 1--
2024-04-20 11:41 am 16.455.11-33.41-- 1.29 1--
2024-04-20 11:40 am 26.254.66-33.44-- 2.07 1--
2024-04-20 11:39 am 32.854.43-33.45-- 2.04 1--
2024-04-20 11:38 am 36.154.28-33.47-- 1.22 2--
2024-04-20 11:34 am 13.155.69-33.36-- 1.05 1--
2024-04-20 11:33 am 9.855.94-33.32-- 0.94 1--
2024-04-20 11:13 am 3.357.02-33.16-- 1.04 1--
2024-04-20 11:12 am 13.155.53-33.38-- 1.10 1--
2024-04-20 11:11 am 19.754.77-33.43-- 1.81 1--
2024-04-20 11:10 am 29.554.57-33.45-- 2.19 1--
2024-04-20 11:09 am 36.154.21-33.47-- 1.36 2--
2024-04-20 11:05 am 19.754.90-33.42-- 1.58 1--
2024-04-20 11:04 am 13.155.78-33.33-- 1.32 1--
2024-04-20 11:03 am 6.656.82-33.19-- 1.18 1--
2024-04-20 10:43 am 6.656.43-33.25-- 1.32 1--
2024-04-20 10:42 am 13.155.60-33.37-- 1.70 1--
2024-04-20 10:41 am 19.754.77-33.43-- 2.06 1--
2024-04-20 10:40 am 29.554.54-33.45-- 1.88 1--
2024-04-20 10:39 am 36.154.18-33.47-- 1.29 2--
2024-04-20 10:34 am 13.155.94-33.31-- 1.97 1--
2024-04-20 10:33 am 9.856.35-33.27-- 1.64 1--
2024-04-20 10:13 am 6.656.88-33.16-- 2.51 1--
2024-04-20 10:12 am 13.156.01-33.31-- 1.98 1--
2024-04-20 10:11 am 19.755.18-33.40-- 1.50 1--
2024-04-20 10:10 am 29.554.63-33.44-- 1.83 1--
2024-04-20 10:09 am 36.154.18-33.47-- 1.67 1--
2024-04-20 10:05 am 19.755.24-33.40-- 1.47 1--
2024-04-20 10:04 am 13.156.21-33.28-- 2.11 1--
2024-04-20 10:03 am 9.856.70-33.20-- 2.67 1--
2024-04-20 09:43 am 6.656.84-33.17-- 2.54 1--
2024-04-20 09:42 am 13.155.92-33.31-- 1.98 1--
2024-04-20 09:41 am 19.754.86-33.42-- 1.69 1--
2024-04-20 09:40 am 29.554.54-33.45-- 2.23 1--
2024-04-20 09:39 am 36.154.03-33.48-- 1.38 1--
2024-04-20 09:34 am 13.156.73-33.20-- 2.19 1--
2024-04-20 09:33 am 9.857.15-33.10-- 3.06 1--
2024-04-20 09:13 am 6.656.70-33.19-- 2.32 1--
2024-04-20 09:12 am 13.155.81-33.33-- 1.69 1--
2024-04-20 09:11 am 19.754.99-33.41-- 1.76 1--
2024-04-20 09:10 am 29.554.66-33.44-- 1.90 1--
2024-04-20 09:09 am 36.154.09-33.48-- 1.50 1--
2024-04-20 09:05 am 19.755.02-33.41-- 1.47 1--
2024-04-20 09:04 am 13.156.03-33.30-- 1.76 1--
2024-04-20 09:03 am 9.856.73-33.17-- 2.30 1--
2024-04-20 08:43 am 6.656.62-33.20-- 2.05 1--
2024-04-20 08:42 am 13.155.62-33.36-- 1.84 1--
2024-04-20 08:41 am 23.054.72-33.43-- 2.11 1--
2024-04-20 08:40 am 32.854.57-33.45-- 1.74 1--
2024-04-20 08:39 am 36.154.07-33.48-- 1.09 4--
2024-04-20 08:34 am 13.156.23-33.26-- 2.00 1--
2024-04-20 08:33 am 9.856.97-33.12-- 2.25 1--
2024-04-20 08:13 am 6.656.79-33.17-- 2.06 1--
2024-04-20 08:12 am 13.156.46-33.23-- 2.50 1--
2024-04-20 08:11 am 19.755.00-33.41-- 1.86 1--
2024-04-20 08:10 am 29.554.68-33.44-- 1.96 1--
2024-04-20 08:09 am 36.154.09-33.48-- 1.41 2--
2024-04-20 08:05 am 23.054.84-33.41-- 2.12 1--
2024-04-20 08:04 am 16.456.01-33.27-- 1.81 1--
2024-04-20 08:03 am 9.856.84-33.17-- 2.11 1--
2024-04-20 07:43 am 6.656.98-33.13-- 2.17 1--
2024-04-20 07:42 am 13.155.98-33.28-- 2.15 1--
2024-04-20 07:41 am 19.754.70-33.42-- 2.43 1--
2024-04-20 07:40 am 29.554.66-33.44-- 1.90 1--
2024-04-20 07:39 am 36.154.10-33.48-- 1.74 1--
2024-04-20 07:34 am 13.155.76-33.29-- 1.90 1--
2024-04-20 07:33 am 6.656.98-33.12-- 2.21 1--
2024-04-20 07:13 am 6.656.75-33.15-- 2.10 1--
2024-04-20 07:12 am 13.155.98-33.26-- 1.80 1--
2024-04-20 07:11 am 19.754.81-33.42-- 2.36 1--
2024-04-20 07:10 am 29.554.61-33.44-- 2.38 1--
2024-04-20 07:09 am 36.153.92-33.48-- 1.34 3--
2024-04-20 07:05 am 19.755.17-33.38-- 1.84 1--
2024-04-20 07:04 am 13.156.16-33.22-- 1.77 1--
2024-04-20 07:03 am 9.856.79-33.13-- 1.84 1--
2024-04-20 06:43 am 3.356.61-33.06-- 1.63 1--
2024-04-20 06:42 am 13.156.34-33.16-- 1.90 1--
2024-04-20 06:41 am 19.755.06-33.38-- 1.56 1--
2024-04-20 06:40 am 29.554.63-33.45-- 2.62 1--
2024-04-20 06:39 am 36.153.91-33.49-- 1.37 3--
2024-04-20 06:34 am 13.154.90-33.41-- 2.56 1--
2024-04-20 06:33 am 9.855.08-33.42-- 1.35 1--
2024-04-20 06:13 am 3.355.67-33.27-- 1.46 1--
2024-04-20 06:12 am 9.855.00-33.41-- 2.54 1--
2024-04-20 06:11 am 19.754.68-33.43-- 3.39 1--
2024-04-20 06:10 am 29.554.48-33.46-- 1.98 1--
2024-04-20 06:09 am 36.153.87-33.48-- 1.25 3--
2024-04-20 06:05 am 19.754.64-33.42-- 2.99 1--
2024-04-20 06:04 am 13.155.02-33.41-- 2.48 1--
2024-04-20 06:03 am 9.855.35-33.37-- 1.48 1--
2024-04-20 05:43 am 3.355.83-33.22-- 2.02 1--
2024-04-20 05:42 am 9.855.15-33.41-- 2.49 1--
2024-04-20 05:41 am 19.754.70-33.42-- 3.01 1--
2024-04-20 05:40 am 29.554.57-33.45-- 2.60 1--
2024-04-20 05:39 am 36.154.07-33.47-- 1.43 3--
2024-04-20 05:34 am 13.155.20-33.41-- 2.82 1--
2024-04-20 05:33 am 6.655.67-33.25-- 1.38 1--
2024-04-20 05:13 am 3.356.14-33.13-- 1.22 1--
2024-04-20 05:12 am 9.855.44-33.36-- 1.68 1--
2024-04-20 05:11 am 16.454.81-33.41-- 2.72 1--
2024-04-20 05:10 am 26.254.61-33.45-- 2.38 1--
2024-04-20 05:09 am 32.854.01-33.48-- 1.47 2--
2024-04-20 05:08 am 36.153.87-33.48-- 1.20 2--
2024-04-20 05:05 am 19.754.84-33.41-- 2.83 1--
2024-04-20 05:04 am 13.155.15-33.41-- 2.26 1--
2024-04-20 05:03 am 6.655.76-33.26-- 1.34 1--